Temp
17 16 17 17 17 17 17 17 17 17 17 17 17 17 17 17 17 17 17 17 17 17 17 16 15 15 16 16 16 17 17 16 15 15 16 16 17 16 16 16 16 16 16
16 16 16 17 17 17 17 17 17 17 17 17 17 17 17 17 17 17 17 17 17 17 17 17 16 16 15 15 16 16 17 17 16 15 15 15 16 16 16 16 16 16 16
15 16 17 17 16 16 16 16 16 17 16 16 16 16 17 17 17 17 17 17 16 16 16 15 15 15 15 15 15 16 16 16 16 16 15 15 15 15 15 16 16 16 16
16 16 17 16 16 16 16 16 16 16 16 16 16 16 16 16 17 17 17 17 16 16 16 15 16 16 16 16 15 15 16 16 16 16 15 15 15 15 15 16 16 16 16
16 16 16 16 16 16 16 16 16 16 16 16 16 16 16 16 16 16 16 17 16 16 15 15 15 15 16 16 16 15 15 16 16 15 14 14 14 14 15 16 16 16 16
15 16 16 16 16 16 16 16 16 16 16 16 16 16 16 16 16 16 16 16 16 16 16 15 15 15 15 16 16 16 16 15 15 15 14 14 14 15 15 15 16 16 16
15 16 16 16 16 16 16 16 16 16 16 16 16 16 16 16 16 16 16 16 16 15 15 15 15 15 15 15 16 16 16 15 15 15 14 14 15 14 15 15 16 16 16
15 16 16 16 16 16 16 16 16 16 16 16 16 16 16 16 16 16 15 15 15 16 16 16 15 15 15 15 16 16 16 16 15 14 14 14 14 14 14 15 16 16 16
16 16 16 16 16 16 16 16 16 16 16 16 16 16 16 16 16 16 16 16 16 16 16 15 15 15 15 15 15 16 16 16 15 15 14 14 14 14 14 14 15 16 16
16 17 17 17 17 17 17 17 17 16 16 16 15 16 16 15 15 15 16 16 16 15 15 15 15 15 15 15 15 15 15 16 16 16 15 14 14 14 14 15 15 15 15
16 16 16 17 17 17 16 17 17 16 17 16 16 16 16 15 15 15 15 15 16 16 16 15 15 15 15 15 15 15 14 15 16 16 16 15 14 14 14 15 15 15 15
16 16 16 16 16 16 16 16 16 16 16 16 15 15 15 15 15 15 15 14 14 15 15 15 15 15 15 16 16 15 15 15 14 15 16 15 14 14 14 14 15 15 15
15 16 16 16 16 16 16 16 16 16 15 15 15 14 15 16 15 15 14 13 14 14 14 14 15 15 15 15 15 15 15 14 14 14 15 14 14 14 14 15 15 15 15
14 15 15 15 15 15 15 15 15 15 15 15 15 15 14 14 14 14 13 13 13 13 14 14 14 14 14 14 14 14 14 14 14 14 14 14 14 14 14 15 15 15 15
14 14 14 14 15 15 15 15 15 15 15 14 14 13 13 13 13 13 13 13 13 13 13 13 13 14 14 14 14 14 14 14 14 14 14 14 14 14 14 14 14 15 15
14 14 14 14 14 14 14 14 14 14 14 13 13 12 11 11 11 11 12 12 12 12 13 13 12 13 13 13 14 14 14 14 14 15 14 14 14 14 14 14 13 14 14
14 14 14 14 13 13 13 13 13 12 12 11 10 9 9 9 9 10 10 11 11 11 11 12 12 12 12 12 13 13 13 13 13 14 13 13 14 14 14 14 14 14 14
13 13 13 13 13 13 13 12 12 11 9 7 7 7 7 7 7 8 8 9 9 9 9 10 11 12 12 12 12 12 12 12 13 13 13 13 13 13 13 13 14 13 13
12 12 12 12 13 13 13 12 12 11 10 7 8 8 7 7 6 7 7 7 8 8 8 9 9 10 10 11 11 11 12 12 12 13 13 13 13 13 13 13 13 13 13
12 12 12 12 12 12 12 11 11 10 9 9 8 8 9 8 8 7 7 7 7 8 8 8 8 9 9 10 10 10 11 11 11 11 12 12 13 13 13 13 14 13 13
11 11 12 12 11 11 11 11 10 10 10 9 9 8 8 9 8 9 8 8 8 8 8 8 8 8 9 9 9 9 10 10 10 11 11 12 12 12 13 13 12 13 13
10 10 11 11 11 11 10 10 10 9 9 7 8 8 8 8 8 8 8 8 8 8 8 8 8 9 9 9 8 9 9 10 10 11 11 11 11 11 11 11 11 12 12
9 10 10 10 10 11 10 10 10 9 8 7 8 7 8 8 8 8 8 8 8 8 8 8 8 8 8 9 8 7 8 9 8 10 11 11 11 12 11 11 11 12 12
8 9 10 10 11 11 10 10 10 9 8 7 7 6 6 6 7 6 6 7 7 7 7 7 7 7 6 6 8 8 7 6 7 8 9 10 10 10 10 11 11 11 10
9 10 10 10 11 10 11 10 10 9 8 8 7 6 6 6 6 6 6 6 6 6 6 6 6 6 5 5 5 6 5 6 6 6 6 7 8 9 9 10 10 9 9
10 10 10 10 10 10 10 10 10 9 8 8 8 7 7 6 6 6 5 5 4 5 5 5 5 4 4 4 4 4 4 4 4 4 4 5 5 6 7 7 7 8 9
Height
1545 1544 1544 1544 1544 1544 1544 1545 1545 1546 1546 1547 1547 1547 1547 1547 1547 1546 1546 1545 1545 1544 1544 1545 1546 1546 1546 1546 1546 1546 1546 1546 1547 1547 1548 1548 1548 1548 1547 1547 1546 1546 1546
1546 1544 1543 1544 1545 1545 1545 1545 1546 1546 1547 1547 1548 1548 1548 1548 1547 1547 1546 1546 1546 1545 1546 1546 1546 1547 1547 1547 1547 1547 1547 1546 1547 1548 1548 1548 1549 1548 1548 1548 1547 1547 1547
1544 1543 1543 1544 1545 1545 1546 1546 1547 1547 1548 1548 1548 1548 1548 1548 1548 1547 1547 1547 1547 1547 1547 1547 1547 1547 1547 1547 1547 1547 1547 1546 1547 1548 1548 1548 1549 1549 1549 1548 1548 1547 1547
1543 1544 1544 1545 1545 1545 1546 1546 1547 1547 1548 1548 1548 1548 1548 1548 1548 1548 1547 1547 1547 1548 1548 1547 1548 1548 1548 1548 1548 1547 1547 1546 1547 1547 1548 1549 1549 1549 1549 1549 1548 1547 1547
1542 1544 1544 1545 1545 1546 1547 1546 1546 1547 1547 1548 1548 1548 1548 1547 1547 1547 1547 1547 1547 1547 1547 1547 1547 1547 1547 1547 1547 1547 1547 1547 1547 1548 1548 1549 1549 1548 1549 1548 1548 1547 1547
1542 1543 1544 1545 1546 1546 1547 1547 1547 1547 1547 1547 1547 1547 1547 1547 1547 1547 1547 1547 1546 1546 1547 1547 1547 1547 1547 1546 1546 1546 1546 1546 1547 1548 1549 1550 1549 1548 1548 1548 1547 1547 1546
1543 1544 1544 1545 1545 1546 1547 1547 1547 1547 1547 1547 1546 1546 1546 1546 1545 1546 1545 1545 1545 1545 1545 1546 1545 1545 1545 1545 1545 1545 1545 1545 1546 1547 1547 1549 1548 1547 1547 1547 1547 1546 1546
1543 1544 1544 1545 1545 1545 1546 1546 1546 1546 1546 1546 1546 1545 1545 1545 1544 1544 1544 1544 1544 1544 1544 1544 1544 1544 1544 1544 1543 1543 1543 1543 1544 1544 1546 1547 1546 1546 1546 1546 1545 1545 1545
1543 1544 1544 1544 1544 1544 1544 1545 1544 1544 1544 1544 1544 1543 1543 1543 1543 1542 1542 1542 1542 1542 1542 1542 1541 1541 1541 1541 1541 1541 1541 1541 1541 1542 1543 1544 1545 1544 1544 1544 1543 1543 1543
1543 1543 1543 1543 1543 1542 1542 1542 1542 1542 1542 1542 1541 1541 1541 1540 1540 1540 1540 1539 1539 1539 1539 1539 1539 1539 1538 1538 1539 1539 1539 1538 1539 1539 1540 1541 1542 1541 1541 1541 1540 1541 1541
1542 1542 1542 1542 1541 1541 1541 1540 1540 1539 1539 1539 1538 1538 1538 1537 1537 1536 1536 1536 1536 1536 1536 1536 1536 1536 1535 1535 1535 1535 1536 1535 1536 1536 1536 1538 1538 1539 1538 1538 1538 1538 1537
1541 1541 1541 1540 1540 1539 1539 1538 1537 1536 1536 1535 1535 1534 1533 1533 1532 1533 1533 1533 1532 1532 1532 1532 1532 1531 1531 1531 1530 1531 1531 1531 1532 1532 1532 1533 1534 1535 1535 1535 1535 1534 1534
1540 1540 1540 1539 1538 1537 1537 1536 1535 1534 1533 1532 1531 1530 1528 1529 1528 1528 1528 1528 1528 1528 1527 1527 1527 1527 1527 1527 1527 1526 1526 1527 1527 1527 1527 1529 1530 1531 1530 1531 1531 1531 1531
1537 1538 1538 1538 1537 1536 1535 1533 1532 1530 1529 1528 1526 1525 1524 1523 1523 1523 1523 1524 1525 1524 1524 1523 1523 1522 1522 1522 1522 1521 1522 1522 1523 1522 1524 1525 1526 1526 1526 1526 1526 1526 1526
1536 1536 1536 1536 1535 1534 1532 1531 1529 1527 1525 1523 1522 1521 1519 1518 1517 1517 1517 1517 1518 1519 1519 1519 1519 1518 1517 1517 1518 1518 1518 1518 1518 1519 1519 1521 1521 1521 1521 1521 1521 1521 1521
1534 1534 1534 1534 1533 1531 1530 1529 1527 1525 1523 1520 1519 1517 1516 1514 1512 1512 1511 1511 1512 1513 1513 1514 1514 1513 1512 1511 1511 1512 1513 1513 1513 1513 1513 1514 1515 1516 1515 1515 1515 1516 1516
1533 1533 1533 1532 1531 1529 1527 1525 1523 1522 1520 1517 1516 1515 1513 1511 1510 1508 1506 1505 1506 1506 1507 1507 1507 1507 1507 1506 1506 1506 1506 1506 1507 1507 1507 1507 1507 1508 1508 1508 1509 1509 1509
1533 1532 1531 1531 1529 1528 1526 1524 1522 1520 1518 1517 1516 1514 1511 1510 1508 1506 1504 1502 1501 1501 1501 1501 1501 1501 1502 1502 1501 1500 1500 1499 1499 1499 1500 1500 1500 1501 1501 1501 1501 1501 1502
1531 1531 1530 1529 1528 1526 1524 1523 1521 1519 1518 1516 1514 1512 1509 1508 1506 1504 1503 1501 1499 1498 1497 1496 1496 1497 1496 1496 1496 1496 1495 1494 1493 1493 1492 1493 1493 1493 1493 1493 1493 1493 1494
1529 1529 1528 1528 1527 1525 1523 1521 1520 1518 1517 1514 1512 1509 1508 1507 1505 1503 1502 1500 1499 1497 1495 1495 1493 1493 1493 1493 1491 1489 1489 1489 1488 1487 1487 1487 1486 1486 1486 1486 1487 1486 1486
1528 1527 1526 1526 1525 1523 1522 1520 1518 1516 1514 1512 1510 1508 1507 1505 1504 1502 1500 1498 1497 1496 1494 1493 1491 1490 1489 1489 1486 1484 1483 1482 1483 1483 1482 1481 1480 1480 1479 1478 1478 1478 1479
1525 1525 1525 1524 1523 1521 1520 1518 1515 1513 1511 1510 1508 1507 1506 1504 1501 1500 1498 1496 1494 1493 1491 1490 1489 1487 1487 1486 1484 1481 1477 1477 1476 1478 1477 1476 1476 1475 1473 1474 1474 1473 1472
1523 1523 1523 1522 1521 1519 1518 1516 1514 1512 1511 1509 1507 1505 1503 1502 1500 1498 1496 1494 1492 1490 1488 1487 1485 1484 1482 1483 1482 1482 1476 1473 1471 1472 1472 1471 1471 1469 1470 1467 1470 1469 1467
1520 1521 1521 1520 1519 1517 1516 1514 1512 1511 1510 1508 1506 1504 1502 1501 1498 1496 1494 1491 1489 1487 1486 1484 1482 1481 1480 1478 1477 1478 1477 1475 1471 1467 1467 1467 1466 1465 1465 1465 1464 1463 1462
1519 1520 1519 1518 1517 1516 1514 1512 1511 1510 1509 1507 1506 1503 1501 1499 1497 1495 1493 1490 1487 1485 1483 1482 1480 1479 1477 1477 1475 1473 1471 1469 1469 1467 1463 1461 1460 1461 1461 1461 1460 1456 1455
1516 1517 1516 1516 1515 1513 1512 1511 1510 1508 1507 1506 1504 1502 1500 1498 1496 1494 1491 1489 1486 1484 1482 1480 1478 1477 1476 1474 1473 1472 1470 1469 1465 1463 1460 1458 1456 1453 1454 1455 1452 1451 1449
Wind_Speed
4 6 2 3 2 3 3 3 3 2 2 4 5 5 5 6 7 8 8 6 5 3 3 4 3 4 3 3 4 4 2 2 3 4 1 2 3 4 5 5 4 5 2
8 1 0 3 1 2 2 2 2 2 2 3 4 5 5 6 7 8 7 5 5 4 4 3 1 2 2 3 2 4 3 2 3 2 1 3 4 3 4 4 4 3 3
5 3 2 3 2 2 2 2 2 2 3 4 5 5 5 6 6 7 6 3 3 3 3 2 2 2 3 2 3 5 4 3 3 3 1 4 7 10 3 4 4 3 1
2 3 3 2 2 2 2 1 1 2 3 4 5 5 6 6 6 6 6 3 1 1 1 2 2 4 5 5 5 5 5 4 3 2 4 1 7 10 6 5 3 2 1
3 2 3 2 1 1 1 1 2 3 4 5 6 6 6 7 7 7 6 4 4 5 4 5 5 6 7 7 7 6 6 5 4 4 6 1 10 7 8 7 5 3 2
5 4 1 2 2 2 3 4 5 5 6 7 7 8 8 8 9 8 8 6 6 7 7 7 9 9 8 8 8 7 7 6 5 5 3 4 13 15 9 8 7 5 4
5 4 3 2 2 3 4 5 6 8 9 9 10 11 11 11 11 11 10 9 8 9 9 10 11 11 10 10 9 9 8 8 8 9 5 9 12 14 13 10 9 8 6
4 2 1 1 2 4 5 6 7 9 9 12 13 12 13 14 14 13 13 12 12 12 12 12 13 12 13 12 11 11 11 9 10 10 8 12 15 15 15 14 11 10 9
2 1 1 2 4 5 7 8 9 10 11 12 14 13 14 15 16 16 15 16 16 16 15 15 15 15 15 15 14 13 13 12 13 14 15 11 17 18 19 17 14 12 11
1 1 3 4 6 7 10 10 10 12 13 14 15 16 17 18 17 17 17 18 18 19 19 18 17 17 17 18 18 16 16 16 16 16 16 15 18 21 21 17 16 14 14
2 4 6 7 9 10 11 12 12 13 13 14 16 16 17 18 17 18 19 21 19 19 19 20 20 20 20 21 21 21 20 20 19 19 19 20 19 22 22 19 18 17 16
4 7 8 10 11 11 12 13 13 13 14 14 14 16 18 18 18 19 20 21 23 24 24 24 25 24 24 25 24 23 24 22 21 21 22 16 18 23 24 22 20 20 19
5 7 9 10 11 13 13 14 14 15 16 16 17 17 20 20 20 19 19 18 21 19 21 23 26 25 26 25 24 25 24 21 23 20 20 19 22 26 28 25 24 23 22
6 7 8 10 12 13 14 15 15 16 17 17 18 19 20 21 21 20 19 18 17 21 23 26 24 24 24 23 24 22 24 23 25 21 19 18 23 27 28 26 26 26 25
7 8 10 11 12 13 14 15 16 17 18 19 19 19 19 21 22 23 22 22 21 20 17 21 22 27 28 25 26 26 28 29 29 27 28 24 25 27 29 28 27 28 28
8 8 10 12 13 14 15 16 16 16 16 17 17 17 17 18 21 21 22 23 24 24 24 22 21 25 27 28 28 28 30 33 30 29 30 30 31 33 33 31 30 29 29
8 9 10 12 13 14 16 17 17 16 16 15 15 15 15 16 18 19 19 20 21 23 24 23 23 19 20 25 28 29 29 31 34 37 36 35 33 32 32 33 35 33 30
9 9 10 11 12 13 15 15 16 15 14 14 15 13 13 16 17 19 18 17 16 17 20 22 24 27 26 20 22 25 31 31 31 30 31 33 32 34 36 36 33 34 33
9 9 10 10 11 12 13 13 13 11 9 8 11 12 11 10 12 14 15 16 16 16 15 18 22 20 20 22 25 21 22 24 25 28 31 35 34 34 33 33 36 36 36
9 9 9 10 10 10 11 11 11 10 8 12 12 12 13 14 13 13 13 13 14 13 13 13 14 15 17 19 22 25 28 28 24 24 28 33 33 34 37 38 36 33 35
9 9 9 8 8 9 9 12 12 13 11 12 12 11 12 13 13 13 12 11 10 12 14 14 14 14 14 15 19 22 23 22 21 21 24 25 28 30 28 29 32 36 37
10 10 8 7 7 8 10 11 13 15 16 13 13 11 12 13 14 14 12 10 11 11 11 13 14 16 16 14 17 21 21 23 18 15 15 11 10 15 21 24 27 30 31
10 10 8 7 7 8 10 11 11 11 12 13 14 13 13 13 13 13 13 13 12 12 12 12 13 15 18 17 14 12 9 5 21 19 21 25 24 20 19 22 26 25 26
14 10 8 7 7 9 9 11 12 12 12 12 12 12 12 13 12 11 12 12 13 12 12 12 13 14 15 16 18 14 16 17 11 15 19 24 22 16 13 15 18 20 23
15 10 8 8 9 9 10 10 11 10 10 10 10 10 10 12 13 12 13 14 14 12 12 11 12 12 12 12 12 16 21 21 16 13 17 21 26 24 24 25 25 26 23
12 11 11 11 11 10 10 10 10 10 10 10 11 11 11 11 12 13 12 12 13 12 10 10 9 10 10 10 12 13 14 16 20 19 23 22 27 30 28 27 30 28 29
Wind_Direction
46 3 26 17 49 75 77 62 60 64 30 10 6 5 359 354 356 357 359 8 22 44 86 125 94 65 82 40 41 27 11 155 146 132 65 28 40 67 64 53 22 50 32
72 23 227 40 59 59 70 61 54 33 9 1 358 358 358 356 357 357 1 17 31 61 82 96 102 24 357 354 10 2 351 284 220 190 39 9 31 42 44 37 26 352 352
116 153 116 155 99 65 61 60 14 352 345 347 345 345 347 347 351 355 358 12 39 68 60 39 31 2 338 313 306 323 322 296 263 222 23 1 345 339 327 356 350 353 341
167 101 170 142 115 118 97 48 4 326 326 322 323 328 332 332 338 345 348 336 304 330 341 348 342 340 324 299 292 297 302 285 262 200 112 5 285 289 290 329 327 349 339
86 128 91 112 131 79 359 300 280 293 295 294 297 304 311 313 319 324 328 316 288 281 291 291 297 311 324 310 290 287 285 272 248 172 150 76 268 281 290 307 308 316 299
76 110 98 73 48 3 335 326 317 302 297 290 284 288 294 296 300 304 308 302 290 280 278 283 281 289 309 314 294 282 277 260 242 205 172 237 263 274 274 296 297 293 289
110 103 79 49 12 346 334 333 308 305 303 295 291 288 284 284 284 286 289 287 286 283 279 280 284 279 291 301 298 285 275 256 237 213 179 242 258 266 265 279 279 277 273
140 124 15 332 310 304 303 293 289 285 288 293 298 296 292 289 285 280 275 276 280 282 283 282 281 279 281 290 290 284 275 260 242 219 218 237 258 263 274 275 276 272 271
139 102 16 344 320 303 297 292 290 288 286 283 286 286 290 292 287 284 282 279 278 279 280 281 280 277 276 279 281 280 274 264 251 238 226 235 257 266 273 272 272 266 262
129 337 323 317 310 308 308 304 294 288 288 287 287 287 289 291 291 284 279 277 277 277 276 276 276 276 274 273 273 273 274 268 260 250 242 228 244 255 263 268 270 266 262
283 302 306 306 305 305 304 301 305 302 298 293 288 288 285 288 289 286 283 281 281 278 279 277 275 275 275 274 271 268 267 268 269 263 253 243 245 258 264 264 267 266 262
291 301 306 308 310 311 309 313 310 303 300 297 293 288 287 280 273 275 279 281 277 274 278 278 279 277 273 274 275 274 266 264 268 268 263 254 262 262 268 267 264 265 265
276 293 305 314 318 319 319 316 312 309 303 297 296 288 279 285 281 276 276 284 287 278 281 279 277 274 276 277 277 275 274 266 270 275 263 246 251 262 267 269 264 263 264
292 305 316 320 323 324 323 321 319 315 308 300 290 290 287 282 277 272 265 259 266 291 280 272 273 276 275 275 274 269 270 274 265 270 269 260 256 262 269 272 267 264 262
292 308 320 325 326 325 325 324 322 318 313 309 306 300 294 289 285 280 269 259 252 251 275 289 281 274 271 271 265 261 255 257 258 256 259 253 256 261 268 273 276 270 265
284 308 319 325 329 330 332 333 331 326 322 319 315 313 307 303 298 294 284 274 264 256 253 259 280 283 278 274 267 262 262 266 264 263 263 260 260 259 264 267 271 275 272
279 301 315 325 331 336 337 338 339 338 340 341 340 334 329 324 319 314 305 294 282 269 259 253 253 261 278 280 276 276 270 266 266 265 265 265 260 262 264 267 266 268 271
275 295 312 323 330 333 334 338 340 344 354 354 352 352 330 341 343 333 328 320 304 286 267 260 259 259 259 267 283 281 278 278 279 275 273 269 269 266 263 266 266 268 267
268 292 309 318 325 329 334 341 342 342 343 320 308 312 325 333 321 327 335 338 335 321 304 283 269 263 267 266 267 276 286 287 285 283 279 275 276 273 270 270 264 263 266
262 286 299 312 322 329 334 339 342 336 322 316 318 323 331 331 332 331 331 326 323 327 328 322 301 288 285 284 280 277 269 267 271 276 279 283 282 276 275 276 275 272 269
261 274 292 306 318 330 337 340 343 341 336 333 334 334 331 332 328 333 327 318 306 311 312 304 299 295 292 293 294 292 289 286 284 284 282 286 292 291 290 289 282 276 274
249 268 284 304 321 333 345 347 351 348 346 339 337 334 333 330 330 333 329 322 317 308 287 288 297 296 289 288 300 299 299 300 297 282 282 286 279 309 282 285 287 282 278
247 259 281 301 324 339 346 348 352 348 346 343 347 349 344 337 333 335 334 329 324 317 310 303 296 298 297 288 289 311 323 306 316 290 277 290 296 301 302 312 309 309 301
238 253 274 302 321 331 340 347 350 350 347 348 348 341 339 339 343 339 334 328 324 321 315 313 309 306 307 307 305 285 276 299 316 313 295 296 301 308 312 307 310 317 312
244 254 275 295 305 319 334 340 340 341 338 338 342 346 340 337 343 342 341 336 328 325 326 322 317 318 316 312 312 310 308 307 311 304 313 304 297 299 292 288 291 293 292
248 260 271 281 293 308 317 324 325 322 324 328 334 334 338 341 341 345 346 348 352 349 341 337 333 334 333 325 316 319 319 322 312 318 313 311 310 307 308 307 298 296 291